Wind_Speed
46 46 46 46 45 46 47 48 50 52 54 55 56 56 56 56 55 54 54 52 51 51 53 54 55 55 55 55 55 55 56 57 58 58 59 61 62 64 68 69 68 69 68 68 69 69 69 68 68 68 70 70 71 73 73 74 75 75 74 74 74 73 73 74 76 74 74 74 62 59 64 64 63 61 61 62 61 60 60 61 58 56 51 48 51 50 49 52
50 49 49 49 49 49 49 49 49 49 51 52 54 55 56 57 57 57 56 55 54 52 52 53 54 55 56 57 57 55 56 56 57 58 58 59 59 61 65 67 69 69 68 68 69 69 70 69 69 68 68 68 69 69 69 71 73 73 74 74 74 74 76 77 75 72 73 73 62 59 63 65 64 61 61 61 61 61 60 61 58 55 50 50 53 53 54 55
53 53 53 52 52 52 52 52 52 51 51 51 52 53 54 55 57 58 58 57 56 54 53 53 53 54 56 58 58 57 57 56 56 56 57 59 59 59 62 64 67 69 69 69 69 69 69 69 69 69 68 67 67 66 65 67 68 69 71 72 72 75 77 76 73 72 75 72 62 60 64 67 66 63 63 63 62 62 61 61 59 55 51 52 56 55 56 56
56 56 56 56 56 56 55 55 56 56 54 54 55 54 54 54 55 56 57 58 58 57 56 55 55 55 55 57 58 58 58 59 57 55 57 59 58 58 60 60 63 66 69 69 69 69 68 69 69 69 70 68 66 65 63 63 64 65 67 67 70 74 74 73 73 74 74 70 64 63 65 67 66 64 65 64 63 63 63 63 60 56 52 54 56 56 57 57
59 59 59 59 59 59 59 59 59 59 59 58 58 57 57 56 56 55 55 56 57 58 58 57 57 57 57 58 57 56 58 60 56 55 58 58 58 59 59 59 60 62 66 68 69 69 68 68 68 69 70 68 67 65 62 63 63 63 63 63 67 69 69 70 72 72 70 68 65 64 65 67 66 65 66 65 64 65 65 63 59 55 53 55 56 57 57 56
62 61 61 61 61 62 62 62 62 62 62 61 61 60 60 59 59 58 57 56 56 57 58 59 59 59 59 59 58 56 57 57 55 58 60 57 58 60 60 59 59 59 61 64 67 69 68 67 67 68 68 68 68 66 65 65 64 63 61 61 64 63 64 66 66 66 66 65 64 63 64 64 65 67 67 65 65 66 64 63 58 54 53 53 55 58 57 57
64 64 63 63 63 64 64 64 64 64 64 64 64 63 62 62 62 61 59 58 57 56 57 59 61 62 62 62 60 57 57 56 55 59 61 59 58 59 60 60 59 59 58 60 64 67 68 67 67 67 67 68 68 68 68 67 65 63 60 61 62 58 60 60 59 60 60 60 59 60 60 62 65 66 65 64 66 64 60 60 57 54 54 53 56 59 59 60
66 66 66 66 66 66 66 66 66 67 67 67 66 65 65 64 64 63 62 61 60 58 57 57 59 62 64 64 62 59 59 58 55 57 60 60 59 59 60 59 59 58 58 58 60 64 67 67 67 67 67 67 68 68 70 68 65 64 62 62 60 57 57 55 54 55 53 53 53 53 55 57 60 61 62 63 64 63 59 58 55 54 56 57 58 60 60 59
69 69 69 69 69 69 69 69 69 69 69 69 69 68 67 67 66 66 65 64 63 61 59 58 58 60 62 64 64 61 60 60 57 58 59 59 60 60 59 58 58 58 58 58 58 60 64 66 66 67 66 67 68 68 70 69 66 66 65 63 59 57 56 52 51 50 48 48 47 48 50 52 55 55 58 60 59 59 57 56 54 53 56 58 59 60 60 60
73 73 73 72 72 72 71 71 71 71 71 71 71 71 70 69 68 68 67 67 65 64 62 60 60 59 59 61 63 63 63 63 60 60 59 58 59 60 60 59 58 58 59 59 59 58 60 63 65 67 67 67 66 66 67 67 67 68 66 62 60 58 56 52 50 48 46 45 44 46 47 49 50 51 53 54 51 52 52 51 52 52 55 57 59 60 60 60
77 77 76 76 76 75 75 75 74 74 73 73 73 73 73 72 71 70 69 69 67 67 65 63 62 61 60 58 58 62 66 66 63 61 61 59 59 59 60 59 58 59 59 59 59 58 58 60 64 67 67 65 64 65 66 66 67 67 66 64 62 60 56 53 51 48 46 45 44 44 45 46 46 47 48 45 44 46 46 45 47 49 51 52 53 54 56 56
80 81 81 80 80 80 79 79 79 77 76 76 76 75 75 75 74 72 71 71 70 69 68 67 65 63 61 58 57 62 66 67 64 62 62 62 60 59 60 60 59 58 59 60 60 60 59 59 63 64 64 64 64 64 64 65 66 65 66 66 64 62 58 55 53 50 48 47 45 44 45 44 44 44 41 38 40 40 39 40 41 42 43 44 44 45 46 47
84 84 85 85 85 85 84 84 83 82 81 79 78 78 78 77 76 75 74 73 72 71 70 70 67 66 62 59 62 65 63 64 64 64 64 64 62 60 59 60 59 59 59 60 60 61 60 59 59 60 62 63 63 63 63 64 64 63 65 67 65 63 59 57 56 52 50 48 46 46 44 43 44 41 36 36 36 34 35 36 34 34 35 34 34 37 40 39
86 86 87 88 88 88 88 88 88 87 85 84 82 81 80 80 79 78 77 76 74 72 72 72 70 68 63 62 67 67 62 61 63 66 66 65 64 62 59 59 60 60 60 60 61 61 61 59 56 58 61 62 62 62 61 62 63 63 66 66 64 62 60 60 58 54 52 50 49 47 45 45 43 37 34 35 32 30 32 30 28 27 23 22 25 30 35 36
89 89 89 89 89 90 91 91 91 90 89 88 86 85 83 82 81 81 80 79 77 75 74 74 73 70 65 67 71 68 62 60 62 67 68 66 66 64 62 60 60 60 61 61 62 61 60 58 57 58 58 60 62 59 58 61 62 63 65 64 62 61 61 62 58 55 54 53 51 49 47 46 40 35 34 32 29 28 28 25 21 17 11 14 20 23 27 29
93 92 92 91 91 91 91 91 92 92 92 91 90 89 86 85 84 83 82 82 80 78 77 76 75 72 68 72 74 70 64 61 63 66 66 67 68 66 64 62 60 60 62 62 61 60 60 59 60 59 56 58 60 57 60 63 62 62 62 61 60 60 62 61 57 56 56 55 53 51 49 46 40 36 34 30 28 25 23 20 17 15 12 15 22 23 25 26
94 93 93 93 92 92 92 92 92 92 92 92 92 91 89 88 87 86 85 85 83 81 79 78 77 74 73 76 77 73 66 62 64 64 65 69 69 68 66 63 61 61 62 63 61 61 61 61 60 58 55 57 58 59 62 60 59 60 60 60 59 59 61 58 56 57 57 56 54 52 52 48 42 39 33 27 25 23 22 22 21 22 20 22 28 29 29 30
92 91 91 91 91 91 91 91 91 91 92 92 91 91 91 91 90 89 88 88 86 84 81 80 79 77 78 79 78 74 68 64 66 65 66 70 71 70 68 66 64 62 63 63 62 62 61 61 60 58 55 54 55 58 59 56 56 58 58 58 57 58 59 55 55 56 56 56 55 54 54 49 44 41 34 27 25 26 27 27 28 32 35 38 35 29 30 34
86 86 86 86 87 87 88 89 90 90 90 90 90 91 91 92 91 91 91 91 88 86 83 82 82 81 80 80 78 75 70 68 68 67 67 70 72 72 70 68 66 63 62 62 62 61 60 61 60 56 53 51 52 55 57 56 58 59 58 58 57 57 57 54 55 55 55 56 55 56 55 50 47 44 38 33 31 31 31 31 34 38 43 49 44 39 39 39
80 80 80 80 81 81 82 83 84 86 87 88 88 89 91 91 92 92 93 93 90 88 86 85 85 83 82 81 80 77 74 72 70 70 69 70 72 73 72 70 67 65 63 61 62 61 61 61 57 54 53 52 53 55 57 59 59 59 58 59 58 56 56 58 57 56 56 57 55 56 55 52 50 46 41 39 36 35 36 38 40 41 43 48 48 46 44 40
75 75 75 75 76 76 77 77 78 80 81 82 84 86 88 89 90 92 93 93 92 91 89 87 86 85 84 83 82 80 78 75 72 71 70 70 72 73 73 71 68 66 63 62 62 62 62 59 55 56 56 55 56 55 57 59 58 57 57 57 57 56 58 60 56 56 58 58 57 57 56 54 53 49 43 41 39 38 40 40 41 43 44 46 48 47 42 39
71 71 70 70 71 71 71 72 72 73 75 76 78 80 83 85 86 89 91 92 92 92 91 90 88 87 87 85 84 84 81 76 74 73 72 72 73 73 74 73 69 67 66 64 62 61 59 56 55 58 58 58 58 56 57 59 58 56 54 56 58 57 60 59 54 55 59 59 58 58 57 56 55 49 42 42 42 39 40 41 40 43 46 47 50 52 47 42
66 66 66 66 66 65 65 66 66 67 68 69 71 73 76 79 80 83 87 89 92 92 92 93 91 90 90 89 88 87 82 79 77 76 75 74 73 73 75 74 71 70 68 66 61 59 58 56 57 60 60 60 58 57 58 58 56 56 55 58 61 60 62 58 52 54 58 58 59 59 57 55 52 47 43 45 46 41 40 41 41 43 47 50 50 52 52 46
61 61 61 61 61 61 60 60 60 61 61 62 64 66 68 71 73 76 81 84 88 90 92 94 93 93 94 93 91 88 84 81 79 78 76 74 73 74 74 75 74 72 69 66 62 60 60 60 61 63 62 61 58 58 58 54 55 58 59 61 62 61 62 57 52 56 60 61 60 58 55 52 48 46 46 48 49 46 45 43 41 43 48 53 51 50 52 51
57 57 57 58 58 56 55 54 54 54 54 55 56 58 60 64 67 70 74 77 80 85 90 94 95 95 97 96 92 89 87 85 81 79 78 76 75 75 75 76 75 73 70 68 65 62 63 64 64 65 64 61 59 59 57 52 55 59 60 61 62 62 62 58 55 58 60 60 58 55 54 52 47 46 48 49 49 48 48 46 44 45 47 51 53 50 50 51
53 54 54 55 54 51 49 49 49 48 48 49 50 53 54 56 60 63 66 69 72 79 86 91 94 97 99 97 93 92 90 87 83 81 79 78 77 76 75 76 76 74 72 71 68 65 64 65 65 65 63 61 60 60 56 54 57 60 61 62 62 62 61 57 54 56 58 58 56 54 55 54 49 48 49 50 51 49 48 48 46 46 47 49 53 54 51 49
51 51 51 51 49 47 45 43 44 43 43 44 46 48 48 50 53 55 58 61 64 72 80 86 92 95 98 97 95 96 93 89 85 82 81 80 79 77 76 76 76 76 75 73 70 66 65 65 65 63 60 60 62 60 58 58 59 60 62 63 61 60 58 54 52 55 58 59 57 56 57 55 50 50 49 49 51 50 46 47 47 47 47 48 51 54 53 48
48 48 47 46 44 42 40 38 39 39 39 40 42 44 45 46 47 49 52 54 59 68 75 81 86 92 96 97 97 98 94 90 87 84 83 83 81 79 78 77 76 76 75 73 69 68 67 65 63 61 59 62 63 62 61 60 61 62 63 63 61 59 57 55 55 56 58 60 58 57 57 54 49 50 50 50 50 49 47 47 48 47 47 48 51 53 52 49
44 43 42 41 39 36 35 34 34 33 34 36 38 41 42 42 43 45 47 50 57 66 71 76 81 87 93 95 97 97 94 91 89 86 86 85 82 81 80 78 78 77 75 72 71 72 68 63 62 62 63 65 64 64 63 60 62 63 61 61 60 59 57 56 57 57 60 62 58 55 54 51 50 50 51 51 49 48 48 49 49 48 48 48 50 50 49 51
40 38 37 35 34 31 30 30 30 29 30 31 33 36 39 40 42 43 44 48 55 62 65 70 75 81 85 90 94 95 94 93 91 88 87 85 83 83 81 80 79 77 75 75 75 74 66 61 64 66 66 67 66 65 62 60 65 63 58 60 62 60 58 57 57 61 65 61 53 52 52 52 52 50 50 53 52 50 51 52 52 52 51 50 52 51 48 50
35 34 32 30 29 27 26 26 26 26 27 28 30 32 34 37 40 42 45 51 57 59 61 66 71 74 78 85 90 91 92 92 90 87 86 84 83 83 82 81 80 78 76 76 75 72 65 62 66 68 68 69 67 65 62 63 66 60 55 60 62 61 60 59 60 63 62 53 48 51 55 55 53 49 51 51 50 52 53 54 54 55 55 52 52 51 47 47
32 30 29 28 26 25 23 23 24 25 26 28 30 30 32 34 38 43 50 55 57 58 60 65 69 72 76 81 85 88 90 89 88 87 87 84 82 82 81 80 79 76 73 74 74 70 64 63 67 69 69 68 66 65 64 65 65 56 54 61 63 62 62 60 60 59 53 49 49 53 56 55 51 48 51 51 50 52 52 53 55 55 54 50 48 49 48 48
31 29 27 26 24 22 21 20 21 23 25 27 29 31 32 35 39 46 52 55 56 57 59 63 67 71 75 78 80 83 86 86 87 87 87 85 84 83 81 79 78 75 72 73 74 70 65 65 69 70 69 67 66 65 62 63 61 53 54 61 61 61 61 58 56 53 51 51 52 55 57 54 50 50 51 51 52 52 51 53 55 54 54 50 49 51 50 50
31 29 27 25 23 20 18 17 17 19 22 25 28 32 34 37 42 46 50 53 55 56 59 62 66 70 72 74 76 79 81 83 85 87 86 85 85 84 82 80 78 75 75 77 75 68 64 64 67 67 67 66 65 62 60 62 61 53 56 62 61 61 58 55 54 52 53 55 54 58 59 53 51 51 50 50 52 52 52 54 53 52 54 53 52 55 55 54
31 28 25 22 20 18 16 15 15 16 18 21 26 30 35 40 44 46 48 50 52 55 58 61 64 67 69 71 74 77 79 81 84 85 85 84 84 82 80 79 78 76 76 76 74 67 64 65 67 68 67 65 63 62 63 65 62 56 59 63 60 58 56 56 57 55 55 57 57 60 58 50 50 50 46 49 52 53 53 53 51 52 53 54 55 57 59 59
29 25 22 19 16 14 13 13 13 13 14 17 22 27 33 38 43 45 45 46 49 55 58 60 62 64 66 68 71 75 77 79 81 83 83 83 83 81 79 77 77 77 75 74 71 66 65 67 68 68 68 65 65 65 67 66 61 58 61 60 55 56 58 60 59 56 56 57 57 57 55 49 49 49 47 49 53 53 53 52 52 53 52 53 56 58 61 61
26 22 19 16 13 11 10 10 11 11 12 15 19 24 28 34 40 43 43 43 47 54 58 58 60 62 62 64 68 71 73 76 79 80 81 82 81 80 79 77 77 77 75 74 71 65 66 68 66 67 68 67 68 68 68 66 61 59 59 57 58 61 62 61 60 57 56 55 55 54 52 49 49 51 50 49 52 54 53 52 53 54 51 52 56 59 60 60
24 21 17 13 10 7 7 8 9 11 12 14 17 22 27 33 39 42 41 42 45 51 55 57 58 60 60 62 65 67 70 73 76 77 78 79 79 78 78 77 76 76 75 74 72 68 68 67 65 68 68 67 69 70 67 64 61 59 60 61 62 61 58 59 59 56 53 53 52 50 51 50 51 52 50 49 51 54 54 52 52 53 53 55 59 61 59 58
24 19 15 11 8 6 4 5 8 10 13 14 17 22 27 32 36 40 41 42 44 48 53 56 57 59 60 62 63 66 69 72 74 75 77 77 77 77 76 74 75 75 74 74 72 70 69 67 65 67 67 68 71 70 66 63 61 61 63 63 60 57 57 58 58 54 52 52 51 50 52 51 51 53 52 50 53 55 55 53 52 52 53 56 60 61 60 60
23 18 14 12 10 8 5 2 4 8 12 15 18 22 25 29 33 37 40 42 43 45 50 54 56 57 59 61 63 66 68 71 74 75 76 76 76 75 74 73 73 74 74 74 71 70 69 66 65 67 68 70 70 66 62 61 62 63 63 60 57 55 56 55 54 53 53 52 51 51 52 52 53 55 53 53 55 56 56 54 52 53 53 54 57 59 60 61
22 18 14 12 11 10 7 4 1 4 8 12 16 20 23 26 30 33 38 41 42 43 47 53 56 56 57 58 61 65 68 70 73 74 75 76 75 73 72 71 71 73 72 70 69 69 67 64 64 66 68 68 67 63 62 63 64 64 62 59 57 55 53 51 51 53 54 54 53 52 52 54 57 57 54 55 56 56 57 56 53 53 54 55 56 58 60 61
21 17 14 12 12 11 8 6 5 5 7 9 13 17 21 24 27 32 37 41 43 43 46 51 55 55 55 57 60 63 66 69 71 72 74 73 72 71 70 69 71 72 70 69 69 68 66 62 64 67 68 69 68 66 65 65 66 65 62 61 60 57 53 49 50 54 56 56 55 55 57 58 59 56 54 56 56 57 57 56 54 51 50 53 56 57 59 60
18 15 13 12 13 12 10 10 9 8 8 8 11 15 19 23 26 31 37 40 42 42 43 47 51 54 55 56 58 61 64 67 69 70 71 70 70 70 69 70 71 71 69 69 69 67 65 62 64 69 71 71 70 68 67 67 66 62 61 62 60 55 52 50 53 57 59 58 56 56 57 56 56 56 54 54 56 58 57 56 54 51 49 54 58 58 58 58
18 14 12 12 13 13 13 14 12 12 13 12 12 15 19 22 26 30 35 38 40 40 40 44 50 53 54 56 57 59 62 64 67 67 67 68 68 68 69 70 71 69 68 68 67 64 62 61 64 69 70 69 68 66 65 63 61 59 60 62 58 55 54 55 57 60 60 59 56 55 54 54 56 56 54 54 54 56 57 57 54 51 50 55 59 58 57 56
18 13 11 10 11 13 14 15 15 16 18 18 18 19 21 24 27 30 34 37 38 38 39 44 50 53 54 56 57 58 60 62 64 65 66 67 68 68 69 69 69 68 68 68 65 62 62 62 64 67 67 65 63 59 56 56 56 58 62 62 58 57 58 56 56 58 58 57 56 55 56 57 57 57 56 56 56 55 55 55 55 54 54 57 58 58 57 55
19 14 9 8 10 13 14 16 18 19 21 22 23 24 26 29 31 33 35 37 38 39 40 44 50 53 54 55 56 57 58 60 62 64 65 66 66 67 67 67 67 67 66 64 61 60 62 62 63 66 66 65 63 60 58 59 60 61 62 61 59 58 58 55 53 54 56 57 56 56 57 56 56 58 56 55 56 56 54 54 55 57 58 59 59 58 56 55
19 15 10 6 8 12 14 17 19 22 23 24 25 27 29 32 34 36 38 39 40 41 42 46 51 53 54 55 56 57 58 59 61 63 63 63 64 65 66 66 65 64 61 58 57 60 62 61 62 65 66 66 64 62 62 63 63 63 62 62 61 59 58 53 50 50 53 55 56 57 58 57 56 58 58 55 55 55 55 56 57 59 60 61 61 59 56 54
19 16 12 7 7 10 13 16 19 21 23 25 25 26 28 31 33 36 38 39 41 42 45 48 52 54 55 56 57 58 58 59 60 61 61 62 63 64 64 64 63 60 59 58 59 62 61 60 61 64 65 63 61 60 61 62 64 65 64 63 62 60 57 52 49 50 51 53 56 59 60 58 56 56 58 59 57 55 56 58 59 60 60 60 61 60 56 54
18 16 13 10 8 10 13 15 17 20 22 24 25 26 27 29 31 34 37 39 41 44 47 50 53 55 55 55 56 56 57 57 58 57 59 61 62 61 61 61 59 59 58 59 61 61 60 59 61 63 64 62 60 61 61 61 63 65 64 64 63 61 58 54 52 52 51 51 56 60 59 58 56 55 56 57 57 56 57 58 60 61 62 62 63 61 58 56
17 16 15 13 10 11 14 16 18 20 21 22 24 25 26 28 31 33 36 38 41 44 47 51 53 54 54 55 55 55 55 56 56 56 57 58 58 59 59 59 58 58 59 59 60 60 60 60 61 62 62 61 59 59 58 58 62 64 64 65 64 62 60 58 57 55 52 52 56 60 58 57 57 57 56 55 56 58 58 59 60 61 62 63 64 62 59 57
16 15 16 15 14 14 15 17 18 20 22 23 24 25 26 28 30 32 34 36 38 41 44 48 51 52 53 53 54 54 55 56 56 57 56 56 56 57 58 58 59 58 59 59 60 60 61 61 61 61 60 59 57 56 56 59 63 64 63 63 62 60 59 58 57 54 53 54 57 58 59 59 59 58 55 52 55 59 61 60 61 61 62 63 63 62 59 56
15 15 15 16 16 17 17 19 19 20 22 23 24 25 27 28 29 31 33 35 37 39 42 44 47 49 50 51 52 53 53 54 55 55 55 56 57 58 58 58 58 58 58 59 60 61 61 60 60 60 59 57 56 56 57 60 63 62 60 59 59 58 57 56 55 53 53 55 55 56 58 60 61 60 56 53 56 60 61 61 60 60 61 63 63 61 58 55
Wind_Direction
290 289 287 285 283 281 278 275 273 271 269 268 267 266 266 266 265 265 264 263 262 259 257 255 254 253 253 252 251 250 250 249 249 248 247 247 245 244 243 242 242 242 241 240 240 240 240 240 240 240 240 240 240 240 240 241 241 242 243 243 244 244 245 245 245 246 248 250 249 248 251 253 253 253 254 255 256 256 256 257 257 258 259 259 258 257 257 258
289 288 286 285 283 281 280 278 276 273 271 270 268 267 266 266 265 265 264 263 262 261 259 256 254 253 252 252 251 250 249 249 248 248 247 247 245 244 243 242 242 242 242 241 240 240 240 240 240 240 240 240 240 240 240 241 241 242 242 243 243 244 244 244 246 247 249 250 248 248 250 252 251 251 252 253 254 255 255 256 256 257 258 259 258 256 255 256
287 286 285 283 282 280 279 278 276 274 272 271 270 268 267 266 265 264 263 262 261 261 260 258 256 254 252 251 250 249 249 248 247 247 247 247 245 244 244 243 242 242 242 241 241 240 240 240 240 240 241 240 240 240 240 241 241 242 242 242 243 243 244 245 246 246 247 249 248 247 248 250 250 250 250 252 253 254 254 255 256 256 256 256 257 258 257 258
285 284 283 282 280 279 278 276 275 274 272 271 270 269 268 266 265 264 262 261 260 259 258 258 257 255 254 252 250 249 248 247 246 246 247 246 246 245 245 244 242 241 241 241 241 241 240 239 239 240 240 240 240 240 239 240 241 241 241 242 242 243 244 245 245 245 247 249 248 246 247 248 250 250 250 251 252 253 253 254 255 256 256 255 257 259 259 259
284 282 281 280 279 277 276 275 274 273 271 270 269 268 267 266 265 264 262 261 260 258 257 256 255 255 255 253 251 249 248 247 246 246 246 246 246 245 245 244 243 242 241 241 241 241 240 240 239 239 239 239 240 240 239 239 240 240 240 241 242 243 243 243 244 245 247 248 247 246 247 248 250 250 249 250 251 251 252 254 255 256 256 257 258 258 259 258
283 281 280 278 277 276 274 273 272 271 270 269 267 266 266 265 264 263 262 260 259 258 257 255 253 252 253 253 252 250 249 248 246 246 246 244 244 244 244 243 243 242 241 241 240 240 240 240 239 239 239 239 238 238 238 238 239 240 240 240 241 241 242 243 244 245 246 247 246 246 247 248 248 248 249 249 250 251 252 254 255 255 255 257 258 258 258 258
282 280 278 277 275 274 273 271 270 269 268 267 266 265 264 263 262 261 260 259 259 258 257 255 253 251 250 251 252 251 251 248 245 246 245 243 243 243 243 243 243 243 242 241 240 240 240 239 239 239 238 238 237 236 236 237 238 239 239 240 241 241 242 243 243 244 245 245 245 245 245 246 246 247 248 249 249 251 252 254 254 254 254 254 254 255 256 258
281 279 277 276 274 273 271 270 269 268 267 266 265 264 263 262 261 260 259 258 257 257 256 255 253 252 250 249 250 250 251 249 246 247 246 243 243 243 243 243 242 243 242 241 240 239 239 238 238 238 238 238 237 236 236 236 237 238 238 239 241 240 242 242 242 243 243 243 243 243 244 244 245 247 247 248 248 249 250 252 254 254 254 253 253 254 255 257
280 278 276 275 273 271 270 269 267 266 265 264 263 262 261 260 259 259 258 257 256 255 254 253 252 252 250 249 249 248 249 249 247 247 247 244 243 242 242 242 241 242 241 241 240 239 239 238 238 238 238 237 237 236 236 236 235 236 237 238 240 240 241 241 242 242 242 242 241 241 242 243 244 245 245 246 247 249 249 250 251 252 253 253 254 255 256 257
279 277 275 273 272 270 268 267 266 265 264 263 262 261 259 258 257 257 256 256 255 254 253 252 251 251 251 250 249 247 248 248 247 247 247 246 243 242 241 241 240 240 240 240 240 239 239 238 237 237 237 237 237 236 237 236 235 235 237 238 239 240 240 241 241 242 241 240 239 240 241 242 243 243 244 246 248 249 249 248 248 248 249 252 254 256 258 260
278 276 274 273 271 269 267 266 265 264 262 261 259 258 258 256 255 254 254 254 253 252 252 251 250 250 250 250 250 247 246 246 246 246 247 246 245 242 241 240 239 239 239 239 239 239 238 237 236 236 236 237 236 236 236 236 235 235 236 236 237 238 239 239 240 240 240 239 238 238 240 241 242 243 244 246 247 248 249 248 247 247 249 253 256 258 260 263
277 275 273 272 270 268 266 265 264 262 261 259 258 256 255 254 253 252 251 251 250 250 251 250 250 249 249 249 250 248 245 244 244 245 246 246 245 243 241 239 238 238 238 238 238 238 238 237 236 236 236 236 236 236 235 236 235 235 235 235 235 236 237 238 239 238 239 238 238 238 239 240 241 242 243 244 245 246 248 248 248 250 251 256 261 265 268 270
276 274 272 270 268 267 265 264 263 261 260 258 256 254 253 252 251 250 249 248 248 248 248 249 249 248 248 248 248 247 246 244 243 243 244 244 244 244 242 240 238 237 237 237 237 237 237 237 237 236 235 236 235 235 235 236 236 234 235 234 234 235 235 237 237 237 238 238 237 237 238 239 240 242 242 241 242 243 246 246 248 252 254 258 266 270 270 268
277 274 272 270 268 266 264 263 262 260 259 257 255 253 251 250 248 248 247 246 245 245 246 247 247 247 247 246 246 247 246 244 242 240 241 242 243 243 242 240 238 236 236 236 236 236 237 237 238 236 235 234 235 234 235 236 235 233 234 234 233 234 234 235 235 235 236 236 236 236 236 238 239 241 240 240 240 240 243 244 245 252 261 267 268 266 264 263
281 278 275 272 269 267 264 262 261 259 258 256 254 252 250 248 247 245 245 244 243 242 243 244 245 245 245 245 246 247 246 244 242 240 240 241 242 242 242 240 238 236 235 235 236 236 237 237 236 236 234 234 234 234 234 234 234 233 235 235 234 233 233 233 234 234 235 235 235 235 235 237 238 238 238 239 239 238 242 244 240 243 265 268 262 269 272 270
284 282 279 276 273 270 267 264 262 260 258 256 254 252 250 248 246 244 242 242 241 240 241 242 243 243 243 244 245 246 245 243 243 241 239 239 239 240 241 240 238 236 235 235 235 235 235 234 234 235 234 233 233 231 232 232 232 233 234 235 234 233 233 233 232 233 234 234 234 234 235 235 235 234 235 238 237 235 238 237 222 222 244 243 241 259 269 265
285 282 280 277 274 272 269 266 264 261 259 256 254 252 250 247 245 243 241 240 239 239 238 239 240 241 241 242 244 245 244 243 243 242 239 238 238 238 239 240 238 237 235 234 234 233 233 233 234 235 234 234 232 231 233 233 234 234 234 234 233 232 233 231 231 232 233 234 234 234 234 233 231 230 230 232 235 232 228 220 207 210 220 221 226 242 251 246
284 281 279 276 274 271 269 267 264 262 259 257 255 253 250 248 245 242 241 239 238 237 237 238 239 239 239 241 243 244 243 242 242 241 239 237 237 236 237 238 238 237 236 234 233 233 233 233 234 234 234 234 234 233 234 234 234 234 234 234 232 232 233 230 230 232 233 233 233 233 233 231 229 227 222 221 229 230 225 221 214 207 206 209 211 219 234 234
284 281 278 275 273 270 267 265 263 261 259 257 255 252 250 248 245 243 240 239 237 236 236 236 237 237 238 240 242 243 242 241 240 240 238 237 235 235 235 236 237 237 236 235 234 233 232 233 233 234 235 236 235 232 232 231 232 231 230 230 229 230 231 229 228 230 231 232 233 233 232 229 227 225 218 214 219 222 220 223 221 211 209 212 204 200 217 226
285 282 279 276 273 270 267 265 262 260 258 256 254 252 250 248 246 243 241 239 237 235 234 234 235 236 237 239 240 240 240 239 239 238 238 237 236 234 234 234 235 237 237 236 234 233 232 232 232 233 233 232 232 231 230 229 230 230 229 230 229 229 229 227 225 226 229 230 231 232 231 228 226 222 216 213 213 214 215 218 218 210 211 216 207 200 212 221
286 283 280 277 274 271 268 266 263 260 258 256 253 251 249 247 245 243 241 239 237 235 233 233 233 235 235 236 238 238 237 237 238 238 238 237 236 234 233 233 234 236 237 236 234 232 232 232 230 230 229 229 229 229 229 229 229 230 229 230 230 229 229 227 224 224 227 229 229 231 230 227 225 220 215 214 214 215 216 217 215 208 209 212 206 202 207 215
286 283 280 278 275 272 270 267 264 261 259 256 253 251 249 246 244 242 241 239 237 235 233 232 232 233 234 234 235 236 236 235 236 236 236 236 235 234 233 232 232 233 235 235 234 233 233 232 229 229 228 228 229 228 228 228 227 228 228 229 228 226 228 227 223 224 227 229 229 230 229 227 224 218 214 216 215 216 219 219 215 209 208 209 206 206 207 212
287 284 282 279 276 274 271 268 265 262 259 256 253 250 248 246 244 241 240 238 236 235 233 231 230 231 232 232 233 234 234 234 234 235 235 234 234 233 232 231 230 231 233 235 234 233 231 229 228 228 227 227 228 228 229 228 226 226 226 226 226 225 227 225 221 223 227 229 229 230 230 228 225 218 213 216 216 214 218 219 215 212 212 211 211 216 216 216
288 285 282 280 277 274 271 268 265 262 259 256 253 250 247 246 243 241 239 237 235 234 232 231 230 229 231 231 231 233 233 233 233 233 234 233 233 233 232 230 230 230 232 233 233 231 228 225 225 225 226 226 226 227 229 229 226 225 225 225 225 225 226 223 219 221 225 226 227 229 230 228 224 218 214 216 216 214 215 215 215 216 216 214 214 219 220 218
289 286 283 280 278 276 273 270 267 264 261 257 254 250 246 244 242 239 237 235 233 232 231 230 229 229 230 230 230 231 232 231 231 232 233 232 232 232 231 230 229 229 230 232 232 230 227 225 223 223 223 223 224 226 228 227 226 226 225 226 226 225 225 222 218 221 224 227 228 228 229 226 220 216 215 216 216 215 214 215 216 218 218 216 216 218 219 219
290 287 284 282 281 279 276 273 269 265 261 257 254 250 245 242 240 237 235 233 231 229 229 229 228 228 229 230 229 230 230 230 230 230 231 231 231 231 230 230 229 228 229 230 230 229 227 225 224 224 224 223 223 224 224 223 224 225 225 226 227 226 226 223 220 223 225 227 227 226 228 226 218 213 214 215 215 214 214 215 217 218 218 217 218 220 219 220
292 289 287 285 284 282 278 274 269 265 260 255 251 248 245 240 237 235 233 230 228 227 227 227 227 227 228 229 228 229 229 228 228 228 229 229 229 229 229 229 228 227 228 229 229 229 228 226 225 225 225 224 223 223 222 222 224 225 225 226 227 226 226 223 220 223 225 226 225 224 226 225 219 214 212 213 213 212 212 215 218 219 219 218 218 220 219 221
295 293 291 289 287 284 280 274 268 263 257 252 248 245 242 238 234 232 229 226 224 224 224 224 224 225 226 227 227 228 228 228 227 226 227 227 227 227 228 228 227 227 227 228 229 229 228 226 225 224 223 223 223 223 222 222 224 225 224 225 226 226 225 220 218 221 225 226 224 224 225 224 220 215 212 214 213 211 213 215 218 220 219 218 218 219 220 221
299 296 293 291 288 285 280 274 267 260 255 249 244 241 238 235 230 228 225 222 221 221 220 220 220 221 223 224 225 227 227 227 226 225 225 225 225 226 226 226 226 225 225 226 226 227 226 224 223 222 220 220 221 222 223 223 224 225 225 225 225 225 223 220 218 220 223 224 224 225 227 225 222 216 213 214 213 210 214 216 217 218 217 217 219 220 220 222
303 299 296 293 289 285 279 273 266 258 252 246 241 237 234 230 226 223 220 219 219 219 218 218 219 219 220 221 223 224 225 225 225 224 223 223 224 224 225 225 225 224 223 224 226 227 226 222 221 220 219 220 219 220 222 222 225 226 224 225 226 224 223 221 219 220 223 223 222 224 227 226 222 217 214 216 214 211 213 214 216 218 217 217 218 218 219 221
307 303 300 296 291 286 279 271 264 255 248 241 236 232 228 225 221 217 215 215 216 215 213 214 216 217 217 218 220 221 222 223 223 223 223 223 223 223 224 224 225 224 223 224 226 227 226 222 221 221 220 220 220 221 221 221 226 226 223 225 226 224 223 221 219 221 224 224 223 224 226 226 223 218 215 215 214 213 212 211 215 219 220 219 219 220 220 220
313 309 305 301 295 289 281 270 260 250 242 235 231 225 220 217 213 212 211 212 212 210 209 210 212 213 214 215 217 218 219 220 220 220 221 221 222 224 224 225 225 224 224 226 227 227 225 222 222 222 221 221 221 222 222 223 227 226 223 226 226 224 224 222 221 223 224 223 222 224 226 227 223 219 217 214 213 214 213 211 214 218 220 220 221 221 219 218
320 317 313 308 301 294 284 271 257 246 237 231 226 220 214 210 208 209 209 209 209 207 206 207 208 210 211 212 214 215 215 216 217 218 218 218 219 221 222 223 224 223 222 224 226 226 224 222 222 222 222 221 221 223 223 226 230 227 223 227 228 226 226 224 224 224 222 221 221 223 225 225 223 220 217 215 215 216 215 215 216 217 218 219 220 220 219 218
327 323 319 314 307 300 290 276 259 244 234 227 221 216 211 207 207 209 208 207 206 204 204 205 206 207 208 209 210 212 213 213 214 215 216 217 218 219 219 220 221 221 220 222 222 222 222 223 223 223 223 223 222 223 222 224 227 224 222 225 227 227 226 225 225 222 221 221 220 223 225 223 223 223 217 214 216 216 216 217 218 218 217 217 220 223 222 221
331 326 322 317 311 305 295 282 265 247 232 223 217 214 210 206 206 208 207 205 203 202 203 204 205 206 206 206 207 208 210 210 212 213 214 215 217 218 219 219 220 220 220 223 223 221 220 221 221 220 221 221 222 221 220 223 225 221 220 224 226 226 225 223 223 220 219 220 219 223 225 221 222 225 219 215 216 216 217 217 218 220 219 217 221 225 225 222
334 329 325 322 317 307 294 282 268 251 233 219 212 211 210 207 207 209 207 202 200 200 201 202 203 204 204 203 205 206 207 207 209 211 212 213 214 215 217 218 219 219 219 221 222 220 221 222 220 219 218 217 218 219 221 224 225 221 221 225 226 226 224 222 222 220 219 221 220 223 225 220 219 221 218 216 217 219 219 218 219 221 221 220 222 226 226 223
340 336 334 331 323 310 293 275 260 246 229 214 206 204 205 205 206 208 205 199 198 199 200 200 201 203 202 202 203 204 205 206 207 209 210 212 213 214 215 216 217 218 218 220 219 217 220 222 220 219 218 216 216 218 220 223 223 221 223 225 224 224 223 221 221 219 219 221 221 222 224 221 218 220 218 215 218 221 220 220 221 222 222 222 224 226 226 225
347 345 342 339 333 320 292 259 238 224 213 204 198 196 198 200 203 206 202 196 196 199 199 198 199 200 200 200 201 201 203 204 206 207 209 211 212 213 214 215 216 217 218 219 218 217 219 221 219 218 218 217 217 218 219 221 222 221 222 222 223 224 224 223 221 220 219 221 221 221 224 222 219 220 219 215 218 223 223 221 222 224 225 225 227 228 227 226
352 350 350 354 357 355 322 256 226 207 193 188 190 191 193 196 199 201 198 194 195 197 198 197 197 198 197 197 198 199 200 202 204 205 207 209 211 212 214 214 216 217 217 219 219 218 220 220 219 218 217 217 219 219 220 220 221 221 222 223 223 224 225 224 222 219 219 220 220 219 221 222 220 221 219 215 217 222 224 223 224 225 226 227 229 231 229 229
356 357 2 12 20 24 19 343 232 206 187 180 183 188 190 192 195 196 193 191 193 196 196 195 196 197 197 195 195 196 198 200 202 203 205 207 210 211 212 213 215 217 218 219 219 219 221 220 219 219 217 217 220 220 221 222 222 222 224 224 224 224 226 226 223 220 219 220 219 217 218 220 221 220 218 216 217 220 223 225 225 226 227 228 230 231 230 231
0 5 11 22 34 36 36 52 129 183 178 177 180 183 185 187 189 190 189 189 191 193 194 194 194 195 196 195 194 195 196 198 201 202 204 206 208 210 211 212 214 216 218 219 220 221 222 221 220 219 217 218 220 219 219 220 221 222 222 223 223 223 225 226 223 221 220 220 218 216 216 218 221 220 218 217 217 219 222 224 225 227 230 233 233 232 231 231
2 10 18 30 45 47 50 75 101 126 146 168 175 176 178 179 181 182 184 187 189 190 193 194 193 192 193 194 195 194 195 197 199 201 204 205 206 208 209 211 214 216 216 217 219 220 221 220 219 218 217 217 218 217 217 218 220 221 221 221 221 220 221 222 222 221 221 220 218 216 214 215 219 220 218 219 219 219 222 224 226 227 230 235 236 234 233 233
360 14 26 39 54 58 65 77 85 100 117 140 161 167 169 170 172 176 181 186 188 189 190 192 192 191 191 193 194 195 195 197 199 201 202 204 205 206 207 209 213 215 216 217 219 220 220 218 217 217 217 216 216 216 217 218 220 220 221 222 222 221 219 219 220 219 219 219 219 219 217 216 219 220 219 220 221 221 222 224 227 229 231 235 238 237 236 234
357 14 33 47 63 72 79 84 90 101 109 117 133 148 156 159 164 170 177 182 186 187 187 188 190 190 190 191 193 194 195 196 198 200 201 203 204 206 207 210 213 214 215 218 219 220 220 218 216 217 218 218 218 218 219 221 222 220 221 224 224 221 219 218 219 219 218 217 218 219 220 217 218 221 219 219 221 222 223 224 225 227 230 233 237 239 238 237
355 7 34 54 71 82 91 98 106 114 117 121 128 137 146 152 157 164 172 178 182 183 183 185 188 189 189 190 192 194 195 196 198 199 200 202 203 205 208 210 213 214 215 217 217 218 218 217 215 217 218 220 221 222 224 225 224 221 221 223 223 221 221 220 220 220 218 218 217 218 219 217 216 219 220 220 222 221 222 223 224 225 229 233 237 240 241 240
353 357 21 58 82 93 103 112 119 123 125 127 132 139 147 152 156 162 168 174 178 179 181 184 186 188 189 189 190 193 195 196 197 199 200 202 203 205 208 210 213 214 216 218 217 217 218 216 214 215 217 218 218 218 220 220 219 219 221 222 222 222 223 222 222 222 220 218 217 219 221 218 216 218 219 221 223 222 222 223 224 226 230 234 237 240 242 242
358 353 1 42 91 107 116 122 127 129 131 134 139 144 150 155 158 162 167 171 175 177 179 182 185 186 188 189 190 192 194 196 197 199 200 202 203 206 208 210 213 214 215 217 216 217 217 215 213 215 217 217 217 216 216 216 215 216 217 219 220 222 223 223 223 224 223 220 218 219 221 220 217 217 218 221 223 223 222 223 224 227 231 235 238 240 242 243
8 5 6 32 82 106 118 125 129 132 134 137 141 145 151 157 160 163 166 170 174 176 177 180 183 185 187 189 190 192 194 196 198 199 199 201 204 206 208 210 212 212 213 213 214 215 216 213 213 216 218 219 218 218 219 217 215 215 215 216 218 220 222 223 223 224 223 221 220 221 221 221 218 216 217 220 223 223 223 223 224 227 231 234 237 240 241 244
18 25 27 39 69 95 110 118 124 128 132 136 140 144 150 156 160 163 166 169 173 175 176 179 182 184 186 189 191 193 194 196 199 200 200 202 203 206 208 210 211 211 211 211 213 214 214 213 213 216 218 219 218 219 219 218 217 216 215 215 217 218 219 219 220 223 222 221 222 222 221 222 222 218 217 219 221 222 224 226 226 228 231 234 237 239 240 243
25 41 47 50 65 89 105 114 120 125 129 133 138 142 148 154 158 162 165 168 172 175 176 178 181 184 186 188 191 193 195 197 199 201 202 204 205 206 208 209 210 210 210 210 212 213 213 213 214 216 218 219 220 220 220 218 217 217 216 216 217 217 217 217 218 219 219 220 222 222 221 222 224 222 220 221 222 222 224 226 227 228 231 234 237 239 240 242
32 49 60 66 73 86 99 109 116 122 127 131 135 139 145 150 155 159 162 166 170 174 177 179 181 183 186 188 191 193 195 197 200 201 202 204 206 208 209 210 210 210 209 209 210 211 213 214 215 217 219 220 221 220 219 217 216 216 217 218 218 219 220 221 222 221 219 219 221 221 219 220 223 222 220 220 223 224 224 226 228 229 231 233 237 239 240 241
44 57 68 77 84 89 96 103 109 115 121 126 131 137 141 146 151 154 158 162 167 172 176 179 181 184 186 189 191 194 195 198 200 202 202 204 206 208 210 210 210 209 209 208 209 211 213 214 216 218 219 220 220 219 217 216 215 215 217 218 219 221 222 224 225 225 225 224 222 221 220 219 221 221 218 218 222 223 223 225 227 229 230 233 236 238 239 240
Height
10648 10647 10646 10644 10643 10642 10641 10640 10639 10639 10638 10638 10638 10638 10639 10639 10639 10639 10640 10640 10640 10641 10642 10643 10644 10645 10646 10647 10647 10649 10651 10653 10655 10658 10660 10661 10666 10670 10668 10672 10675 10676 10682 10685 10687 10690 10693 10697 10699 10702 10704 10709 10712 10715 10720 10722 10725 10727 10731 10735 10737 10741 10742 10743 10743 10747 10750 10752 10773 10780 10773 10775 10777 10780 10780 10781 10783 10785 10786 10785 10791 10793 10800 10806 10803 10801 10800 10798
10641 10640 10639 10638 10636 10635 10634 10633 10632 10632 10631 10631 10631 10631 10631 10631 10632 10632 10633 10633 10633 10634 10635 10636 10637 10638 10639 10639 10640 10643 10644 10646 10649 10651 10654 10655 10659 10661 10660 10665 10668 10670 10675 10678 10680 10683 10686 10690 10693 10696 10699 10703 10705 10709 10715 10715 10718 10721 10724 10727 10732 10734 10732 10735 10739 10747 10747 10748 10768 10776 10770 10768 10770 10775 10774 10775 10778 10779 10781 10780 10785 10790 10798 10801 10797 10797 10797 10796
10634 10633 10632 10630 10629 10628 10627 10626 10625 10624 10624 10624 10623 10623 10624 10624 10624 10624 10625 10626 10626 10628 10628 10629 10630 10631 10631 10631 10633 10636 10638 10640 10642 10646 10648 10648 10652 10654 10654 10658 10661 10663 10667 10671 10674 10677 10681 10684 10687 10690 10692 10697 10700 10704 10709 10709 10712 10715 10717 10721 10725 10724 10725 10732 10737 10742 10740 10745 10764 10769 10764 10761 10763 10769 10769 10771 10772 10773 10775 10776 10780 10786 10794 10795 10791 10792 10792 10793
10627 10625 10624 10622 10621 10620 10619 10618 10617 10616 10617 10616 10616 10616 10616 10616 10616 10617 10617 10618 10619 10620 10621 10622 10623 10624 10623 10623 10626 10629 10631 10631 10636 10641 10640 10641 10646 10648 10649 10652 10654 10657 10660 10663 10667 10670 10674 10678 10681 10684 10686 10691 10694 10698 10703 10705 10706 10707 10711 10715 10716 10716 10721 10728 10731 10733 10736 10745 10757 10760 10758 10755 10758 10763 10763 10766 10768 10768 10769 10771 10776 10782 10788 10787 10786 10787 10787 10789
10619 10617 10615 10614 10612 10611 10610 10610 10609 10608 10608 10608 10608 10608 10608 10608 10608 10609 10610 10610 10611 10613 10614 10615 10616 10616 10616 10616 10618 10622 10623 10625 10633 10635 10631 10636 10640 10641 10642 10645 10647 10650 10653 10656 10661 10663 10668 10672 10675 10677 10680 10685 10689 10694 10698 10698 10698 10700 10705 10708 10708 10712 10717 10721 10724 10729 10735 10742 10749 10752 10752 10751 10754 10757 10756 10761 10762 10762 10763 10766 10773 10780 10782 10781 10782 10782 10782 10785
10610 10608 10607 10605 10603 10602 10601 10600 10600 10599 10599 10599 10599 10600 10600 10601 10601 10601 10602 10602 10604 10605 10606 10607 10608 10609 10608 10608 10611 10615 10616 10620 10628 10625 10624 10630 10632 10633 10636 10638 10641 10644 10647 10651 10654 10657 10661 10665 10668 10671 10675 10679 10683 10687 10689 10690 10692 10694 10700 10701 10702 10708 10711 10715 10721 10726 10731 10736 10742 10745 10746 10747 10748 10747 10750 10756 10756 10757 10761 10763 10770 10776 10776 10777 10777 10776 10778 10780
10600 10599 10597 10595 10594 10592 10591 10590 10590 10589 10589 10589 10589 10591 10591 10592 10592 10593 10594 10594 10595 10597 10598 10599 10600 10601 10600 10601 10604 10609 10610 10613 10619 10616 10617 10623 10624 10627 10629 10632 10636 10638 10641 10644 10647 10650 10654 10658 10662 10665 10668 10671 10675 10680 10680 10683 10687 10690 10695 10695 10697 10705 10706 10712 10718 10721 10726 10731 10735 10738 10739 10740 10739 10741 10747 10750 10750 10754 10759 10761 10767 10773 10772 10775 10775 10773 10775 10776
10590 10588 10586 10585 10583 10582 10581 10580 10579 10579 10578 10578 10579 10580 10581 10582 10583 10584 10585 10586 10587 10588 10590 10591 10592 10592 10592 10594 10597 10603 10603 10605 10612 10609 10609 10616 10618 10620 10622 10627 10631 10633 10636 10638 10640 10643 10646 10651 10655 10657 10661 10664 10668 10673 10673 10678 10683 10685 10689 10689 10693 10700 10702 10708 10713 10716 10722 10725 10729 10731 10732 10733 10733 10738 10742 10743 10745 10750 10756 10759 10765 10769 10766 10768 10771 10770 10771 10772
10579 10577 10575 10573 10572 10570 10569 10568 10568 10567 10567 10568 10568 10569 10570 10572 10573 10574 10576 10577 10579 10580 10581 10582 10583 10583 10584 10587 10590 10595 10596 10598 10603 10602 10602 10609 10611 10613 10617 10621 10625 10627 10630 10631 10633 10637 10640 10645 10648 10651 10654 10657 10661 10666 10668 10673 10679 10679 10681 10685 10691 10695 10698 10705 10709 10712 10717 10721 10724 10725 10725 10727 10729 10734 10735 10736 10742 10747 10753 10757 10762 10766 10763 10763 10766 10766 10768 10769
10567 10565 10563 10561 10559 10558 10557 10556 10556 10556 10556 10556 10556 10557 10558 10560 10562 10564 10566 10568 10570 10571 10572 10574 10575 10575 10577 10580 10583 10588 10589 10589 10594 10595 10597 10601 10603 10607 10611 10615 10619 10621 10623 10625 10627 10631 10634 10638 10640 10643 10646 10650 10656 10660 10663 10668 10672 10673 10676 10682 10687 10690 10695 10701 10705 10708 10713 10716 10719 10719 10720 10722 10724 10729 10730 10734 10741 10744 10749 10755 10759 10762 10763 10763 10764 10766 10767 10767
10554 10551 10549 10548 10546 10545 10544 10543 10543 10543 10544 10544 10544 10545 10546 10548 10550 10552 10555 10557 10560 10561 10563 10565 10566 10568 10570 10572 10577 10579 10578 10580 10587 10589 10591 10594 10596 10601 10604 10608 10612 10614 10617 10619 10622 10625 10627 10630 10632 10635 10640 10646 10650 10654 10658 10662 10665 10669 10672 10677 10681 10684 10691 10696 10700 10704 10708 10711 10714 10715 10716 10718 10721 10724 10727 10734 10739 10741 10745 10751 10754 10757 10760 10761 10763 10765 10766 10765
10540 10537 10535 10533 10531 10530 10529 10529 10529 10530 10530 10530 10531 10532 10533 10535 10537 10540 10543 10545 10549 10552 10554 10555 10557 10560 10561 10567 10569 10566 10567 10573 10580 10583 10584 10586 10589 10593 10596 10601 10605 10608 10610 10613 10615 10618 10620 10623 10625 10630 10636 10640 10643 10647 10652 10655 10659 10665 10666 10670 10675 10679 10687 10692 10695 10700 10703 10707 10710 10711 10712 10715 10717 10720 10727 10733 10734 10738 10742 10746 10750 10753 10756 10758 10762 10765 10765 10765
10525 10522 10520 10517 10516 10515 10514 10513 10513 10514 10515 10516 10517 10518 10520 10521 10524 10527 10530 10533 10537 10541 10543 10544 10548 10550 10554 10561 10557 10553 10560 10568 10573 10576 10576 10578 10582 10586 10590 10594 10598 10601 10603 10606 10609 10611 10614 10617 10621 10627 10630 10633 10637 10642 10647 10649 10654 10660 10659 10663 10670 10675 10684 10686 10690 10696 10698 10702 10705 10706 10709 10711 10714 10719 10726 10729 10731 10738 10741 10744 10749 10751 10753 10757 10762 10765 10764 10764
10508 10505 10503 10500 10499 10498 10497 10497 10497 10498 10499 10501 10502 10504 10506 10508 10511 10514 10516 10520 10524 10530 10532 10534 10538 10541 10548 10552 10542 10543 10555 10561 10566 10567 10567 10571 10575 10579 10583 10587 10591 10594 10597 10599 10601 10604 10608 10613 10618 10621 10624 10628 10631 10637 10643 10644 10648 10652 10651 10657 10666 10673 10678 10679 10684 10691 10693 10697 10700 10702 10706 10707 10711 10718 10723 10725 10730 10736 10739 10744 10747 10750 10755 10759 10763 10764 10762 10762
10488 10486 10483 10481 10480 10479 10479 10479 10479 10480 10482 10484 10485 10488 10491 10493 10496 10499 10503 10506 10511 10518 10521 10523 10527 10532 10541 10539 10529 10536 10548 10553 10557 10557 10561 10566 10568 10572 10576 10579 10584 10587 10590 10592 10595 10600 10604 10609 10612 10613 10619 10622 10626 10634 10637 10637 10641 10645 10647 10655 10663 10668 10670 10673 10681 10687 10688 10691 10695 10698 10701 10704 10711 10717 10719 10723 10728 10733 10737 10743 10747 10751 10755 10759 10762 10762 10759 10759
10467 10464 10462 10460 10459 10459 10459 10460 10461 10462 10463 10466 10468 10471 10475 10478 10482 10485 10489 10492 10497 10504 10508 10513 10516 10523 10532 10525 10520 10529 10539 10545 10547 10549 10556 10558 10559 10564 10568 10572 10577 10580 10583 10585 10589 10595 10598 10602 10604 10607 10614 10617 10621 10628 10627 10628 10636 10640 10645 10652 10658 10661 10662 10669 10677 10680 10681 10685 10690 10693 10696 10701 10709 10713 10716 10722 10726 10731 10737 10742 10745 10748 10752 10756 10759 10759 10757 10758
10446 10443 10440 10438 10437 10436 10437 10438 10439 10442 10444 10447 10449 10454 10458 10462 10466 10470 10474 10477 10483 10489 10496 10501 10505 10514 10519 10512 10511 10520 10530 10538 10538 10543 10549 10548 10552 10557 10560 10566 10570 10572 10575 10578 10584 10588 10591 10595 10598 10604 10610 10612 10617 10621 10620 10628 10635 10638 10642 10646 10652 10655 10656 10665 10672 10673 10676 10680 10685 10688 10691 10698 10705 10709 10714 10720 10725 10730 10733 10736 10738 10740 10746 10751 10753 10754 10753 10754
10425 10421 10418 10416 10415 10414 10414 10415 10417 10419 10422 10426 10431 10435 10440 10444 10450 10455 10459 10462 10468 10475 10484 10490 10495 10502 10504 10501 10504 10512 10523 10530 10530 10535 10540 10540 10544 10548 10553 10558 10562 10566 10568 10573 10578 10581 10586 10590 10594 10599 10605 10609 10614 10617 10620 10628 10630 10632 10637 10640 10647 10649 10651 10661 10666 10667 10672 10675 10679 10682 10685 10694 10700 10705 10713 10717 10719 10721 10722 10725 10726 10727 10733 10737 10741 10747 10748 10749
10403 10400 10397 10394 10393 10392 10392 10393 10394 10397 10400 10404 10410 10415 10420 10426 10432 10439 10443 10446 10454 10463 10472 10478 10482 10488 10492 10494 10498 10505 10514 10519 10520 10526 10529 10531 10536 10540 10546 10551 10555 10560 10562 10568 10572 10576 10582 10584 10589 10597 10603 10607 10610 10613 10617 10620 10621 10625 10630 10633 10638 10642 10647 10655 10658 10662 10666 10668 10673 10676 10681 10689 10694 10701 10710 10713 10713 10712 10712 10716 10718 10719 10722 10725 10729 10734 10737 10741
10383 10380 10377 10374 10373 10372 10372 10373 10374 10376 10379 10384 10389 10394 10400 10406 10413 10421 10425 10431 10442 10450 10457 10464 10469 10475 10482 10485 10488 10495 10502 10507 10512 10516 10520 10524 10528 10533 10538 10543 10549 10553 10557 10563 10567 10571 10575 10578 10588 10595 10599 10602 10603 10606 10609 10611 10614 10619 10624 10627 10632 10638 10641 10645 10651 10657 10659 10662 10667 10669 10675 10683 10688 10696 10705 10709 10711 10711 10709 10710 10713 10716 10719 10722 10726 10728 10732 10738
10365 10361 10358 10356 10354 10353 10353 10354 10355 10358 10361 10365 10370 10375 10380 10385 10393 10402 10407 10416 10427 10434 10442 10451 10457 10464 10470 10474 10479 10484 10489 10497 10504 10508 10513 10518 10520 10525 10531 10537 10544 10548 10553 10557 10559 10564 10569 10576 10586 10589 10591 10594 10595 10599 10602 10605 10610 10614 10620 10624 10628 10633 10633 10637 10647 10652 10652 10656 10660 10663 10670 10676 10681 10692 10701 10705 10709 10710 10708 10709 10712 10715 10718 10721 10726 10728 10731 10736
10348 10344 10342 10339 10337 10336 10336 10337 10338 10340 10343 10347 10352 10357 10361 10365 10375 10383 10390 10401 10411 10419 10429 10437 10445 10452 10457 10463 10468 10470 10478 10489 10495 10499 10504 10508 10512 10519 10524 10530 10538 10542 10545 10548 10553 10560 10567 10576 10581 10581 10584 10586 10588 10593 10595 10599 10605 10610 10616 10618 10621 10625 10625 10632 10644 10647 10646 10651 10655 10658 10664 10668 10675 10689 10699 10701 10704 10706 10705 10706 10710 10713 10716 10719 10723 10724 10724 10728
10333 10330 10327 10324 10322 10321 10321 10321 10322 10324 10327 10331 10335 10340 10344 10349 10358 10367 10374 10384 10394 10404 10415 10423 10433 10439 10442 10450 10454 10457 10470 10480 10485 10490 10495 10500 10506 10511 10516 10523 10530 10533 10537 10543 10551 10557 10564 10571 10572 10573 10576 10579 10584 10589 10589 10595 10602 10606 10609 10610 10612 10617 10619 10628 10641 10643 10642 10646 10649 10652 10657 10664 10675 10688 10694 10694 10697 10702 10702 10704 10707 10710 10713 10715 10718 10719 10720 10722
10320 10316 10314 10310 10308 10307 10307 10307 10308 10310 10313 10316 10320 10325 10330 10335 10343 10351 10358 10367 10377 10390 10402 10409 10418 10426 10428 10435 10441 10449 10462 10469 10475 10482 10487 10494 10499 10503 10510 10516 10521 10526 10532 10539 10545 10550 10556 10559 10561 10564 10568 10574 10580 10582 10584 10593 10599 10600 10601 10602 10606 10611 10615 10626 10636 10634 10634 10637 10641 10647 10654 10663 10675 10684 10686 10687 10691 10696 10699 10702 10705 10706 10707 10709 10712 10713 10716 10718
10308 10304 10301 10297 10295 10294 10295 10296 10297 10299 10302 10304 10308 10312 10317 10322 10328 10335 10342 10352 10364 10377 10386 10392 10404 10413 10414 10421 10433 10443 10451 10457 10466 10475 10480 10487 10491 10496 10502 10507 10514 10522 10527 10532 10537 10542 10547 10549 10552 10556 10561 10569 10575 10576 10582 10590 10592 10592 10595 10597 10601 10606 10611 10621 10628 10628 10629 10633 10639 10647 10651 10658 10669 10676 10679 10682 10686 10691 10695 10698 10700 10700 10702 10704 10707 10708 10710 10713
10297 10293 10290 10286 10284 10284 10285 10286 10287 10289 10291 10294 10297 10299 10305 10310 10315 10322 10330 10340 10353 10362 10370 10378 10391 10398 10399 10411 10426 10431 10436 10447 10458 10467 10473 10478 10482 10488 10494 10499 10508 10515 10519 10524 10528 10533 10538 10542 10547 10551 10558 10566 10569 10571 10578 10583 10583 10585 10590 10592 10596 10602 10608 10619 10625 10626 10627 10630 10636 10643 10645 10651 10662 10668 10671 10675 10679 10685 10689 10692 10694 10695 10697 10700 10702 10703 10706 10710
10287 10283 10279 10276 10275 10275 10276 10277 10277 10278 10281 10283 10286 10289 10294 10299 10305 10313 10320 10331 10343 10350 10356 10365 10376 10385 10390 10403 10414 10416 10425 10438 10448 10458 10464 10468 10474 10481 10486 10492 10500 10506 10511 10516 10522 10529 10534 10538 10543 10549 10557 10562 10563 10567 10573 10576 10577 10580 10584 10587 10592 10599 10606 10617 10622 10621 10621 10624 10630 10636 10638 10645 10655 10661 10666 10668 10672 10679 10684 10687 10689 10690 10692 10695 10697 10699 10703 10708
10278 10274 10270 10268 10267 10266 10266 10267 10267 10269 10271 10273 10276 10280 10285 10290 10297 10305 10311 10322 10332 10335 10341 10351 10363 10372 10379 10390 10399 10404 10416 10430 10440 10450 10455 10458 10466 10472 10478 10485 10493 10499 10505 10511 10519 10523 10525 10532 10540 10547 10553 10555 10558 10563 10566 10569 10571 10573 10578 10582 10589 10595 10602 10610 10614 10615 10616 10618 10625 10630 10634 10642 10651 10658 10663 10664 10668 10675 10679 10682 10684 10686 10688 10690 10693 10697 10702 10706
10270 10266 10263 10261 10259 10259 10258 10258 10259 10261 10262 10265 10268 10272 10276 10283 10290 10297 10304 10313 10317 10320 10328 10339 10349 10356 10364 10378 10387 10395 10409 10420 10429 10438 10442 10449 10459 10464 10470 10478 10483 10490 10499 10505 10509 10510 10518 10530 10537 10540 10544 10547 10552 10555 10559 10565 10565 10567 10575 10581 10585 10591 10597 10603 10608 10610 10608 10611 10621 10628 10633 10640 10646 10652 10658 10661 10666 10672 10675 10676 10679 10681 10683 10688 10691 10693 10698 10702
10263 10259 10256 10254 10252 10252 10252 10251 10252 10254 10256 10258 10262 10265 10269 10276 10282 10289 10298 10304 10305 10310 10321 10331 10338 10345 10357 10369 10375 10385 10399 10407 10417 10427 10433 10442 10450 10456 10463 10470 10475 10484 10492 10496 10498 10505 10517 10527 10528 10531 10537 10540 10544 10549 10556 10561 10557 10562 10575 10578 10580 10586 10592 10598 10604 10602 10599 10609 10623 10627 10630 10635 10638 10647 10654 10656 10661 10666 10668 10672 10675 10676 10679 10685 10687 10690 10695 10699
10257 10253 10250 10248 10246 10246 10246 10245 10245 10248 10250 10252 10255 10259 10263 10269 10276 10283 10288 10290 10292 10301 10312 10321 10329 10339 10351 10358 10364 10377 10388 10397 10411 10422 10428 10436 10444 10450 10456 10462 10469 10478 10486 10489 10494 10505 10516 10522 10521 10525 10530 10533 10539 10545 10552 10553 10550 10562 10574 10571 10574 10581 10585 10592 10595 10594 10601 10616 10624 10623 10624 10626 10633 10643 10649 10650 10656 10660 10662 10667 10670 10671 10674 10680 10683 10687 10694 10698
10251 10248 10245 10243 10241 10240 10240 10240 10240 10242 10244 10246 10249 10253 10257 10262 10268 10272 10274 10277 10283 10294 10303 10311 10320 10330 10339 10346 10355 10367 10378 10391 10405 10413 10420 10431 10440 10445 10452 10460 10467 10476 10485 10488 10494 10503 10512 10516 10515 10518 10523 10529 10537 10542 10546 10546 10547 10563 10570 10565 10569 10575 10579 10587 10591 10597 10609 10617 10618 10617 10618 10622 10631 10640 10643 10646 10651 10654 10658 10662 10664 10667 10672 10677 10680 10683 10689 10693
10246 10243 10240 10238 10236 10235 10235 10235 10235 10237 10239 10241 10244 10248 10252 10256 10259 10260 10263 10269 10278 10288 10296 10304 10312 10320 10327 10337 10348 10359 10370 10384 10395 10403 10412 10422 10429 10436 10445 10453 10461 10472 10480 10480 10486 10498 10505 10507 10507 10512 10520 10527 10533 10538 10544 10545 10550 10564 10566 10561 10566 10572 10577 10587 10593 10601 10608 10609 10611 10611 10612 10619 10627 10632 10637 10642 10646 10649 10653 10656 10659 10664 10669 10674 10676 10678 10682 10685
10243 10239 10236 10234 10232 10231 10231 10230 10231 10232 10234 10237 10240 10243 10246 10249 10251 10253 10258 10265 10273 10282 10290 10297 10304 10310 10319 10331 10343 10354 10365 10377 10386 10394 10404 10414 10421 10428 10437 10446 10455 10464 10467 10468 10478 10493 10500 10502 10506 10512 10518 10525 10530 10537 10543 10542 10546 10559 10559 10556 10561 10567 10576 10586 10590 10596 10600 10601 10605 10604 10606 10617 10622 10625 10632 10638 10640 10644 10648 10651 10655 10659 10663 10668 10671 10671 10674 10677
10239 10236 10234 10232 10230 10228 10228 10227 10227 10229 10231 10233 10236 10239 10242 10244 10246 10249 10255 10262 10271 10280 10286 10292 10299 10306 10315 10326 10337 10347 10358 10370 10379 10387 10398 10408 10417 10426 10435 10443 10450 10456 10460 10466 10478 10490 10493 10495 10500 10506 10512 10520 10527 10533 10535 10533 10540 10551 10550 10549 10557 10566 10575 10579 10581 10587 10591 10594 10598 10598 10603 10615 10617 10621 10630 10634 10635 10638 10642 10647 10652 10654 10658 10664 10666 10664 10665 10669
10237 10234 10232 10230 10228 10226 10225 10224 10225 10226 10228 10231 10233 10236 10239 10242 10245 10248 10255 10263 10270 10276 10281 10289 10297 10304 10312 10323 10332 10341 10351 10363 10373 10383 10394 10403 10411 10421 10430 10437 10444 10450 10458 10465 10476 10486 10487 10487 10493 10499 10506 10515 10521 10524 10526 10529 10538 10545 10544 10550 10560 10563 10566 10569 10574 10582 10585 10589 10594 10597 10603 10611 10614 10619 10625 10628 10630 10633 10637 10643 10647 10649 10654 10659 10660 10657 10658 10663
10236 10233 10231 10228 10226 10225 10224 10223 10223 10224 10226 10229 10231 10234 10238 10242 10245 10249 10256 10264 10269 10273 10279 10286 10294 10302 10311 10321 10329 10339 10350 10360 10369 10379 10390 10398 10407 10416 10423 10431 10438 10445 10453 10460 10470 10479 10479 10481 10490 10496 10501 10509 10512 10515 10519 10525 10533 10540 10544 10551 10552 10550 10555 10563 10569 10576 10581 10586 10592 10596 10601 10608 10611 10614 10618 10624 10626 10628 10633 10638 10641 10645 10649 10652 10652 10649 10652 10659
10236 10233 10230 10228 10226 10224 10223 10223 10223 10223 10225 10227 10230 10233 10237 10240 10244 10248 10256 10263 10268 10273 10279 10286 10293 10301 10311 10320 10329 10339 10349 10358 10367 10377 10387 10395 10404 10412 10419 10427 10433 10440 10448 10455 10463 10471 10471 10476 10485 10489 10496 10503 10505 10508 10514 10522 10531 10537 10540 10541 10540 10545 10555 10561 10566 10574 10581 10585 10590 10596 10599 10602 10606 10609 10614 10621 10622 10623 10628 10633 10637 10639 10642 10644 10643 10643 10649 10655
10236 10233 10230 10228 10226 10225 10224 10224 10223 10223 10225 10227 10230 10232 10235 10239 10243 10249 10256 10262 10267 10272 10279 10286 10293 10299 10307 10316 10326 10337 10345 10355 10365 10375 10384 10392 10400 10408 10416 10424 10430 10437 10443 10449 10458 10465 10467 10473 10481 10485 10492 10497 10497 10503 10513 10521 10527 10530 10531 10533 10539 10548 10553 10557 10564 10573 10578 10581 10587 10592 10594 10598 10603 10605 10611 10616 10617 10619 10623 10628 10632 10633 10635 10636 10637 10639 10645 10648
10236 10233 10230 10228 10227 10226 10225 10225 10226 10226 10226 10227 10230 10232 10235 10239 10244 10250 10257 10263 10267 10273 10279 10286 10293 10299 10306 10314 10323 10333 10342 10351 10360 10370 10379 10387 10396 10404 10412 10420 10426 10432 10438 10446 10455 10460 10463 10470 10476 10480 10487 10490 10494 10505 10515 10519 10523 10525 10528 10534 10541 10546 10549 10555 10563 10570 10573 10577 10582 10587 10590 10595 10598 10600 10606 10611 10612 10615 10618 10622 10627 10628 10629 10631 10633 10637 10640 10641
10238 10234 10232 10230 10228 10227 10227 10227 10227 10228 10228 10229 10231 10234 10237 10241 10246 10252 10259 10264 10268 10274 10280 10286 10291 10299 10308 10316 10323 10330 10339 10348 10357 10366 10374 10382 10392 10401 10410 10418 10423 10428 10436 10445 10452 10456 10460 10468 10473 10477 10483 10489 10495 10505 10510 10513 10515 10520 10526 10532 10537 10541 10546 10554 10561 10565 10569 10573 10577 10582 10587 10590 10590 10594 10602 10605 10607 10611 10613 10616 10621 10624 10626 10628 10630 10632 10633 10635
10240 10236 10234 10232 10230 10229 10228 10228 10229 10230 10231 10232 10234 10236 10239 10243 10248 10254 10259 10264 10268 10273 10279 10286 10292 10300 10309 10317 10324 10331 10339 10347 10355 10364 10372 10381 10391 10400 10408 10416 10419 10424 10434 10441 10445 10450 10456 10464 10469 10472 10478 10484 10490 10496 10501 10505 10508 10515 10522 10527 10530 10537 10543 10551 10557 10560 10563 10567 10572 10576 10578 10580 10583 10590 10597 10600 10603 10605 10607 10612 10616 10620 10624 10625 10625 10626 10627 10631
10243 10239 10237 10234 10232 10231 10230 10230 10231 10233 10234 10235 10237 10239 10242 10245 10250 10255 10260 10264 10270 10275 10281 10288 10295 10302 10310 10317 10325 10332 10339 10347 10354 10362 10372 10381 10390 10397 10405 10411 10414 10421 10431 10435 10439 10445 10452 10459 10464 10466 10470 10476 10481 10488 10494 10498 10504 10513 10520 10523 10528 10536 10542 10546 10548 10550 10554 10560 10566 10569 10573 10578 10583 10587 10592 10596 10598 10601 10604 10609 10612 10616 10620 10619 10617 10619 10621 10625
10245 10242 10239 10237 10235 10233 10232 10232 10234 10235 10236 10238 10240 10242 10245 10248 10252 10256 10261 10266 10272 10277 10284 10291 10298 10304 10310 10318 10325 10332 10339 10347 10354 10362 10372 10380 10388 10396 10402 10406 10411 10419 10427 10430 10436 10444 10450 10456 10460 10461 10465 10472 10479 10486 10492 10498 10506 10515 10518 10520 10527 10533 10534 10536 10538 10541 10547 10554 10561 10566 10571 10576 10579 10582 10587 10591 10593 10596 10600 10604 10607 10612 10614 10611 10610 10613 10616 10620
10248 10245 10242 10239 10238 10236 10235 10235 10236 10237 10238 10240 10242 10245 10247 10250 10254 10259 10264 10269 10274 10280 10286 10292 10298 10305 10311 10318 10326 10333 10340 10347 10354 10363 10370 10377 10385 10392 10397 10403 10409 10416 10420 10425 10433 10440 10444 10450 10455 10458 10466 10475 10483 10491 10497 10503 10508 10511 10512 10515 10522 10526 10528 10532 10536 10540 10546 10552 10558 10562 10564 10568 10574 10577 10582 10586 10588 10591 10595 10600 10604 10607 10607 10605 10605 10607 10610 10614
10251 10248 10245 10243 10240 10239 10238 10238 10238 10239 10240 10241 10243 10245 10248 10252 10255 10259 10264 10270 10275 10281 10287 10293 10299 10306 10313 10319 10327 10334 10341 10348 10355 10362 10368 10375 10383 10389 10395 10401 10406 10411 10417 10424 10433 10437 10440 10446 10452 10457 10463 10470 10477 10484 10490 10494 10499 10503 10507 10512 10518 10522 10525 10530 10535 10539 10545 10549 10554 10557 10558 10563 10569 10573 10578 10582 10584 10587 10592 10596 10599 10600 10600 10600 10601 10603 10606 10609
10255 10252 10249 10246 10243 10242 10241 10241 10240 10241 10242 10243 10245 10246 10249 10252 10255 10259 10265 10271 10276 10282 10287 10294 10300 10307 10314 10321 10327 10334 10341 10348 10354 10360 10367 10375 10382 10387 10392 10398 10403 10410 10417 10425 10431 10432 10435 10444 10451 10454 10458 10463 10470 10476 10479 10484 10491 10496 10501 10507 10513 10517 10522 10528 10534 10537 10541 10545 10550 10552 10553 10559 10564 10568 10573 10576 10578 10583 10588 10590 10592 10594 10595 10595 10596 10599 10602 10604
10258 10256 10253 10250 10248 10246 10245 10245 10245 10245 10245 10246 10248 10250 10253 10256 10259 10263 10267 10272 10277 10283 10288 10295 10301 10308 10315 10321 10327 10333 10340 10346 10352 10359 10367 10373 10379 10384 10390 10395 10401 10409 10416 10421 10424 10426 10432 10442 10447 10450 10454 10460 10468 10473 10476 10481 10486 10489 10495 10501 10507 10512 10519 10526 10531 10532 10535 10541 10544 10545 10548 10554 10558 10563 10567 10569 10573 10579 10582 10584 10587 10589 10590 10590 10591 10594 10598 10601
10261 10259 10257 10256 10253 10251 10250 10250 10250 10250 10250 10251 10252 10254 10257 10260 10263 10267 10270 10274 10279 10283 10289 10295 10303 10309 10315 10322 10328 10334 10341 10347 10353 10360 10367 10371 10376 10382 10388 10394 10400 10407 10412 10416 10419 10424 10431 10438 10443 10446 10450 10457 10463 10467 10472 10478 10483 10487 10492 10497 10502 10507 10514 10520 10523 10525 10530 10536 10538 10539 10545 10550 10555 10559 10562 10564 10569 10574 10576 10579 10582 10584 10584 10585 10586 10589 10593 10596
10265 10263 10261 10260 10258 10256 10255 10254 10254 10254 10255 10256 10257 10259 10261 10264 10267 10270 10273 10277 10282 10286 10291 10296 10304 10310 10317 10323 10329 10335 10342 10348 10354 10360 10366 10371 10377 10382 10387 10392 10398 10403 10408 10413 10417 10423 10429 10434 10438 10442 10447 10453 10459 10463 10469 10476 10480 10484 10489 10493 10498 10503 10507 10512 10515 10518 10524 10529 10530 10534 10542 10547 10550 10553 10557 10562 10566 10568 10569 10571 10575 10578 10579 10579 10581 10584 10588 10592
10270 10267 10265 10264 10263 10262 10260 10259 10259 10259 10259 10260 10262 10264 10266 10268 10271 10274 10278 10281 10286 10291 10296 10300 10306 10312 10318 10324 10330 10335 10341 10347 10352 10358 10364 10370 10376 10381 10385 10390 10395 10400 10405 10410 10415 10420 10425 10430 10435 10439 10444 10450 10455 10461 10466 10470 10474 10479 10485 10491 10496 10501 10505 10509 10512 10515 10520 10522 10524 10529 10536 10540 10542 10546 10553 10559 10561 10560 10562 10565 10568 10572 10573 10574 10576 10579 10583 10587
10274 10272 10270 10268 10267 10266 10266 10265 10265 10265 10265 10265 10267 10268 10270 10273 10275 10278 10282 10286 10290 10294 10299 10304 10309 10314 10319 10325 10330 10335 10341 10346 10351 10357 10363 10368 10372 10377 10381 10386 10391 10397 10402 10407 10412 10416 10421 10427 10432 10436 10441 10447 10451 10456 10460 10463 10469 10478 10485 10490 10494 10498 10502 10506 10510 10514 10517 10518 10522 10526 10530 10533 10535 10540 10548 10552 10551 10552 10555 10558 10562 10566 10568 10569 10571 10575 10579 10584